Regional Weather Roundup
Issued by NWS Glasgow, MT

Home | Current Version | Previous Version | Text Only | Print | Product List | Glossary On
Versions: 1 2 3 4 5 6 7 8 9 10 11 12 13 14 15 16 17 18 19 20 21 22 23 24 25 26 27 28 29 30 31 32 33 34 35 36 37 38 39 40 41 42 43 44 45 46 47 48 49 50
000
ASUS45 KGGW 280115
RWRGGW
HOURLY REGIONAL WEATHER ROUNDUP FOR NORTHEAST MONTANA
NATIONAL WEATHER SERVICE GLASGOW MONTANA
700 PM MDT THU AUG 27 2015

NOTE: "FAIR" INDICATES FEW OR NO CLOUDS BELOW 12,000 FEET WITH NO
SIGNIFICANT WEATHER AND/OR OBSTRUCTIONS TO VISISBILITY.

NORTHEAST MONTANA


CITY           SKY/WX    TMP DP  RH WIND       PRES   REMARKS
GLASGOW        PTCLDY    85  56  37 S6        29.85F
PLENTYWOOD       N/A     82  52  35 S8          N/A
WOLF POINT     PTCLDY    86  60  41 CALM      29.85F
JORDAN           N/A     85  49  28 CALM      29.90S
WINNETT          N/A     80  45  28 W7G15       N/A
SIDNEY         PTCLDY    81  66  61 CALM      29.87S
GLENDIVE       MOCLDY    82  57  42 CALM      29.91F
MALTA            N/A     79  56  45 SW5         N/A

FORT PECK REPORTS


CITY           SKY/WX    TMP DP  RH WIND       PRES   REMARKS
FORT PECK        N/A     84  58  40 SE6         N/A
THE PINES        N/A     84  50  30 S2          N/A

SOUTHEAST MONTANA


CITY           SKY/WX    TMP DP  RH WIND       PRES   REMARKS
BILLINGS       CLOUDY    74  45  35 SW21G29   30.04F
MILES CITY     MOCLDY    88  46  23 CALM      29.91S
BAKER          PTCLDY    81  60  48 NE6       29.95R
LIVINGSTON     PTSUNNY   79  42  26 SW16G25   30.10R

CENTRAL MONTANA


CITY           SKY/WX    TMP DP  RH WIND       PRES   REMARKS
HAVRE          MOSUNNY   83  47  28 SE5       29.87F HAZE
LEWISTOWN      CLOUDY    78  51  38 SE6       30.02F HAZE
GREAT FALLS    CLOUDY    82  38  20 SW7       29.96S HAZE
CUT BANK       CLOUDY    79  36  21 W15       29.97S HAZE
HELENA         PTSUNNY   85  37  18 S8        30.00F
BUTTE          SUNNY     77  35  21 SE7       30.15F
BOZEMAN        TSTM      70  47  43 E8G36     30.14R

WESTERN MONTANA


CITY           SKY/WX    TMP DP  RH WIND       PRES   REMARKS
MISSOULA       CLOUDY    84  37  18 NW14      30.00S HAZE
KALISPELL      NOT AVBL

NORTH DAKOTA


CITY           SKY/WX    TMP DP  RH WIND       PRES   REMARKS
WILLISTON      PTCLDY    81  65  58 SW3       29.87F
DICKINSON      CLEAR     77  59  53 SE7       29.90F
MINOT          CLEAR     76  66  71 CALM      29.86F
BISMARCK       CLEAR     77  64  64 S10       29.91F

SOUTHERN SASKATCHEWAN


CITY           SKY/WX    TMP DP  RH WIND       PRES   REMARKS
REGINA         CLOUDY    77  64  65 S7        29.78F
ESTEVAN        MOCLDY    75  59  57 S5        29.85F
SWIFT CURRENT  CLEAR     77  52  41 W8        29.84F



USA.gov is the U.S. government's official web portal to all federal, state and local government web resources and services.